Time,TemperatureF,DewpointF,PressureIn,WindDirection,WindDirectionDegrees,WindSpeedMPH,WindSpeedGustMPH,Humidity,HourlyPrecipIn,Conditions,Clouds,dailyrainin,SoftwareType,DateUTC
2013-03-02 00:09:00,36.5,26.0,29.77,NNE,23,2.0,6.0,66,0.00,,,0.00,weatherlink.com 1.10,2013-03-02 05:09:00,
2013-03-02 00:24:00,36.3,25.0,29.77,North,8,6.0,11.0,65,0.00,,,0.00,weatherlink.com 1.10,2013-03-02 05:24:00,
2013-03-02 00:39:00,36.1,25.0,29.77,NE,55,2.0,9.0,65,0.00,,,0.00,weatherlink.com 1.10,2013-03-02 05:39:00,
2013-03-02 00:54:00,35.9,25.0,29.77,ENE,60,1.0,7.0,64,0.00,,,0.00,weatherlink.com 1.10,2013-03-02 05:54:00,
2013-03-02 01:09:00,35.7,25.0,29.77,NNE,23,2.0,11.0,65,0.00,,,0.00,weatherlink.com 1.10,2013-03-02 06:09:00,
2013-03-02 01:24:00,35.6,25.0,29.77,North,5,5.0,7.0,66,0.00,,,0.00,weatherlink.com 1.10,2013-03-02 06:24:00,
2013-03-02 01:39:00,35.4,25.0,29.77,NNE,20,3.0,7.0,66,0.00,,,0.00,weatherlink.com 1.10,2013-03-02 06:39:00,
2013-03-02 01:54:00,35.1,25.0,29.77,NE,47,1.0,6.0,67,0.00,,,0.00,weatherlink.com 1.10,2013-03-02 06:54:00,
2013-03-02 02:09:00,34.9,25.0,29.77,NW,316,2.0,6.0,67,0.00,,,0.00,weatherlink.com 1.10,2013-03-02 07:09:00,
2013-03-02 02:24:00,34.8,25.0,29.77,NNE,13,3.0,9.0,67,0.00,,,0.00,weatherlink.com 1.10,2013-03-02 07:24:00,
2013-03-02 02:39:00,34.7,25.0,29.77,NE,40,4.0,8.0,68,0.00,,,0.00,weatherlink.com 1.10,2013-03-02 07:39:00,
2013-03-02 02:54:00,34.6,25.0,29.77,NNE,30,1.0,5.0,67,0.00,,,0.00,weatherlink.com 1.10,2013-03-02 07:54:00,
2013-03-02 03:09:00,34.5,25.0,29.77,NNW,338,2.0,6.0,67,0.00,,,0.00,weatherlink.com 1.10,2013-03-02 08:09:00,
2013-03-02 03:24:00,34.5,25.0,29.77,ENE,61,0.0,2.0,68,0.00,,,0.00,weatherlink.com 1.10,2013-03-02 08:24:00,
2013-03-02 03:39:00,34.3,25.0,29.77,NNE,33,3.0,4.0,68,0.00,,,0.00,weatherlink.com 1.10,2013-03-02 08:39:00,
2013-03-02 03:54:00,34.2,25.0,29.78,NW,321,2.0,6.0,68,0.00,,,0.00,weatherlink.com 1.10,2013-03-02 08:54:00,
2013-03-02 04:09:00,34.1,25.0,29.77,North,359,0.0,4.0,68,0.00,,,0.00,weatherlink.com 1.10,2013-03-02 09:09:00,
2013-03-02 04:24:00,34.0,24.0,29.77,NW,322,0.0,5.0,68,0.00,,,0.00,weatherlink.com 1.10,2013-03-02 09:24:00,
2013-03-02 04:39:00,33.9,24.0,29.77,NW,318,1.0,5.0,68,0.00,,,0.00,weatherlink.com 1.10,2013-03-02 09:39:00,
2013-03-02 04:54:00,33.8,24.0,29.77,NW,317,2.0,4.0,68,0.00,,,0.00,weatherlink.com 1.10,2013-03-02 09:54:00,
2013-03-02 05:09:00,33.7,24.0,29.77,NE,39,1.0,5.0,68,0.00,,,0.00,weatherlink.com 1.10,2013-03-02 10:09:00,
2013-03-02 05:24:00,33.6,24.0,29.76,NNE,24,1.0,5.0,68,0.00,,,0.00,weatherlink.com 1.10,2013-03-02 10:24:00,
2013-03-02 05:39:00,33.5,24.0,29.77,ENE,60,2.0,3.0,68,0.00,,,0.00,weatherlink.com 1.10,2013-03-02 10:39:00,
2013-03-02 05:54:00,33.2,24.0,29.77,ENE,58,1.0,4.0,68,0.00,,,0.00,weatherlink.com 1.10,2013-03-02 10:54:00,
2013-03-02 06:09:00,32.9,23.0,29.77,NNW,328,0.0,4.0,68,0.00,,,0.00,weatherlink.com 1.10,2013-03-02 11:09:00,
2013-03-02 06:24:00,32.8,23.0,29.77,NNW,335,1.0,4.0,68,0.00,,,0.00,weatherlink.com 1.10,2013-03-02 11:24:00,
2013-03-02 06:39:00,32.8,23.0,29.77,NE,37,0.0,3.0,68,0.00,,,0.00,weatherlink.com 1.10,2013-03-02 11:39:00,
2013-03-02 06:54:00,33.0,23.0,29.77,NNW,328,2.0,4.0,68,0.00,,,0.00,weatherlink.com 1.10,2013-03-02 11:54:00,
2013-03-02 07:09:00,33.2,24.0,29.78,North,1,1.0,3.0,68,0.00,,,0.00,weatherlink.com 1.10,2013-03-02 12:09:00,
2013-03-02 07:25:00,33.4,23.0,29.77,NNE,33,1.0,8.0,67,0.00,,,0.00,weatherlink.com 1.10,2013-03-02 12:25:00,
2013-03-02 07:40:00,33.6,23.0,29.78,NW,324,3.0,5.0,66,0.00,,,0.00,weatherlink.com 1.10,2013-03-02 12:40:00,
2013-03-02 07:55:00,33.8,23.0,29.78,NNE,25,2.0,7.0,66,0.00,,,0.00,weatherlink.com 1.10,2013-03-02 12:55:00,
2013-03-02 08:10:00,34.1,23.0,29.78,ESE,114,3.0,7.0,65,0.00,,,0.00,weatherlink.com 1.10,2013-03-02 13:10:00,
2013-03-02 08:25:00,34.6,23.0,29.78,NNW,340,1.0,6.0,64,0.00,,,0.00,weatherlink.com 1.10,2013-03-02 13:25:00,
2013-03-02 08:40:00,35.1,24.0,29.77,NNE,25,3.0,6.0,63,0.00,,,0.00,weatherlink.com 1.10,2013-03-02 13:40:00,
2013-03-02 08:55:00,35.9,24.0,29.77,NNW,337,4.0,8.0,62,0.00,,,0.00,weatherlink.com 1.10,2013-03-02 13:55:00,
2013-03-02 09:10:00,36.6,24.0,29.77,NW,310,1.0,9.0,60,0.00,,,0.00,weatherlink.com 1.10,2013-03-02 14:10:00,
2013-03-02 09:25:00,37.8,24.0,29.76,NNE,13,3.0,7.0,58,0.00,,,0.00,weatherlink.com 1.10,2013-03-02 14:25:00,
2013-03-02 09:40:00,38.4,25.0,29.76,North,358,4.0,8.0,58,0.00,,,0.00,weatherlink.com 1.10,2013-03-02 14:40:00,
2013-03-02 09:55:00,38.4,24.0,29.76,NE,46,4.0,9.0,57,0.00,,,0.00,weatherlink.com 1.10,2013-03-02 14:55:00,
2013-03-02 10:10:00,38.9,24.0,29.76,NNE,15,10.0,11.0,56,0.00,,,0.00,weatherlink.com 1.10,2013-03-02 15:10:00,
2013-03-02 10:25:00,39.1,24.0,29.75,NNW,340,3.0,6.0,56,0.00,,,0.00,weatherlink.com 1.10,2013-03-02 15:25:00,
2013-03-02 10:40:00,40.1,25.0,29.75,NNW,330,0.0,6.0,56,0.00,,,0.00,weatherlink.com 1.10,2013-03-02 15:40:00,
2013-03-02 10:55:00,40.0,25.0,29.75,NNW,332,3.0,13.0,55,0.00,,,0.00,weatherlink.com 1.10,2013-03-02 15:55:00,
2013-03-02 11:10:00,40.7,24.0,29.75,NE,51,0.0,6.0,52,0.00,,,0.00,weatherlink.com 1.10,2013-03-02 16:10:00,
2013-03-02 11:25:00,40.6,25.0,29.75,ENE,61,2.0,4.0,54,0.00,,,0.00,weatherlink.com 1.10,2013-03-02 16:25:00,
2013-03-02 11:40:00,41.3,25.0,29.74,NW,313,6.0,9.0,52,0.00,,,0.00,weatherlink.com 1.10,2013-03-02 16:40:00,
2013-03-02 11:55:00,41.0,25.0,29.74,NE,55,6.0,6.0,53,0.00,,,0.00,weatherlink.com 1.10,2013-03-02 16:55:00,
2013-03-02 12:10:00,40.7,25.0,29.74,NW,308,0.0,7.0,53,0.00,,,0.00,weatherlink.com 1.10,2013-03-02 17:10:00,
2013-03-02 12:25:00,40.8,25.0,29.73,NNE,33,5.0,6.0,53,0.00,,,0.00,weatherlink.com 1.10,2013-03-02 17:25:00,
2013-03-02 12:40:00,40.3,25.0,29.73,NNE,30,1.0,5.0,55,0.00,,,0.00,weatherlink.com 1.10,2013-03-02 17:40:00,
2013-03-02 12:55:00,39.8,25.0,29.72,NE,37,0.0,5.0,55,0.00,,,0.00,weatherlink.com 1.10,2013-03-02 17:55:00,
2013-03-02 13:10:00,39.5,25.0,29.72,North,1,5.0,8.0,56,0.00,,,0.00,weatherlink.com 1.10,2013-03-02 18:10:00,
2013-03-02 13:25:00,39.2,25.0,29.72,North,8,3.0,7.0,57,0.00,,,0.00,weatherlink.com 1.10,2013-03-02 18:25:00,
2013-03-02 13:40:00,39.5,26.0,29.71,NE,37,1.0,6.0,58,0.00,,,0.00,weatherlink.com 1.10,2013-03-02 18:40:00,
2013-03-02 13:55:00,39.2,26.0,29.71,NNW,340,1.0,9.0,60,0.00,,,0.00,weatherlink.com 1.10,2013-03-02 18:55:00,
2013-03-02 14:10:00,39.2,26.0,29.71,West,276,2.0,7.0,59,0.00,,,0.00,weatherlink.com 1.10,2013-03-02 19:10:00,
2013-03-02 14:25:00,39.0,26.0,29.71,North,5,2.0,7.0,60,0.00,,,0.00,weatherlink.com 1.10,2013-03-02 19:25:00,
2013-03-02 14:40:00,39.1,27.0,29.70,NNW,332,2.0,7.0,61,0.00,,,0.00,weatherlink.com 1.10,2013-03-02 19:40:00,
2013-03-02 14:55:00,39.0,26.0,29.70,NNW,347,2.0,6.0,60,0.00,,,0.00,weatherlink.com 1.10,2013-03-02 19:55:00,
2013-03-02 15:10:00,38.7,26.0,29.70,North,354,2.0,5.0,60,0.00,,,0.00,weatherlink.com 1.10,2013-03-02 20:10:00,
2013-03-02 15:25:00,38.9,25.0,29.70,North,358,4.0,7.0,58,0.00,,,0.00,weatherlink.com 1.10,2013-03-02 20:25:00,
2013-03-02 15:40:00,38.9,25.0,29.70,NNE,14,4.0,8.0,57,0.00,,,0.00,weatherlink.com 1.10,2013-03-02 20:40:00,
2013-03-02 15:56:00,38.9,25.0,29.70,NNE,30,1.0,8.0,57,0.00,,,0.00,weatherlink.com 1.10,2013-03-02 20:56:00,
2013-03-02 16:11:00,38.7,24.0,29.70,NNE,20,2.0,7.0,57,0.00,,,0.00,weatherlink.com 1.10,2013-03-02 21:11:00,
2013-03-02 16:26:00,38.3,25.0,29.70,North,355,4.0,7.0,58,0.00,,,0.00,weatherlink.com 1.10,2013-03-02 21:26:00,
2013-03-02 16:41:00,38.1,24.0,29.70,North,356,1.0,8.0,58,0.00,,,0.00,weatherlink.com 1.10,2013-03-02 21:41:00,
2013-03-02 16:56:00,37.9,24.0,29.71,ENE,64,2.0,8.0,58,0.00,,,0.00,weatherlink.com 1.10,2013-03-02 21:56:00,
2013-03-02 17:11:00,37.6,24.0,29.71,North,4,2.0,6.0,59,0.00,,,0.00,weatherlink.com 1.10,2013-03-02 22:11:00,
2013-03-02 17:26:00,37.3,24.0,29.71,NE,41,1.0,8.0,59,0.00,,,0.00,weatherlink.com 1.10,2013-03-02 22:26:00,
2013-03-02 17:41:00,37.1,24.0,29.71,NNE,13,6.0,9.0,59,0.00,,,0.00,weatherlink.com 1.10,2013-03-02 22:41:00,
2013-03-02 17:56:00,36.9,24.0,29.72,NNE,21,0.0,4.0,60,0.00,,,0.00,weatherlink.com 1.10,2013-03-02 22:56:00,
2013-03-02 18:11:00,36.7,24.0,29.72,NNE,27,3.0,7.0,61,0.00,,,0.00,weatherlink.com 1.10,2013-03-02 23:11:00,
2013-03-02 18:26:00,36.3,25.0,29.73,NNW,344,3.0,7.0,63,0.00,,,0.00,weatherlink.com 1.10,2013-03-02 23:26:00,
2013-03-02 18:41:00,36.0,24.0,29.74,NNW,331,2.0,7.0,63,0.00,,,0.00,weatherlink.com 1.10,2013-03-02 23:41:00,
2013-03-02 18:56:00,35.7,24.0,29.74,WNW,294,0.0,5.0,63,0.00,,,0.00,weatherlink.com 1.10,2013-03-02 23:56:00,
2013-03-02 19:11:00,35.6,24.0,29.74,North,351,5.0,8.0,63,0.00,,,0.00,weatherlink.com 1.10,2013-03-03 00:11:00,
2013-03-02 19:26:00,35.1,24.0,29.74,North,349,4.0,9.0,65,0.00,,,0.00,weatherlink.com 1.10,2013-03-03 00:26:00,
2013-03-02 19:41:00,34.7,25.0,29.74,NNE,26,1.0,7.0,67,0.00,,,0.00,weatherlink.com 1.10,2013-03-03 00:41:00,
2013-03-02 19:56:00,34.3,25.0,29.75,NNW,335,2.0,9.0,68,0.00,,,0.00,weatherlink.com 1.10,2013-03-03 00:56:00,
2013-03-02 20:11:00,34.1,24.0,29.74,NE,37,1.0,10.0,67,0.00,,,0.00,weatherlink.com 1.10,2013-03-03 01:11:00,
2013-03-02 20:26:00,34.1,24.0,29.74,NNE,15,2.0,10.0,66,0.00,,,0.00,weatherlink.com 1.10,2013-03-03 01:26:00,
2013-03-02 20:41:00,33.9,24.0,29.75,North,1,4.0,9.0,67,0.00,,,0.00,weatherlink.com 1.10,2013-03-03 01:41:00,
2013-03-02 20:56:00,33.5,25.0,29.75,NNW,342,3.0,6.0,70,0.00,,,0.00,weatherlink.com 1.10,2013-03-03 01:56:00,
2013-03-02 21:11:00,32.9,25.0,29.75,NNW,342,5.0,7.0,72,0.00,,,0.00,weatherlink.com 1.10,2013-03-03 02:11:00,
2013-03-02 21:26:00,32.5,25.0,29.75,NNW,335,2.0,10.0,74,0.00,,,0.00,weatherlink.com 1.10,2013-03-03 02:26:00,
2013-03-02 21:41:00,32.3,25.0,29.75,NNW,343,5.0,8.0,74,0.00,,,0.00,weatherlink.com 1.10,2013-03-03 02:41:00,
2013-03-02 21:56:00,32.0,25.0,29.74,West,276,4.0,8.0,75,0.00,,,0.00,weatherlink.com 1.10,2013-03-03 02:56:00,
2013-03-02 22:11:00,31.8,25.0,29.74,NNW,345,2.0,6.0,76,0.00,,,0.00,weatherlink.com 1.10,2013-03-03 03:11:00,
2013-03-02 22:26:00,31.7,25.0,29.74,West,271,0.0,8.0,75,0.00,,,0.00,weatherlink.com 1.10,2013-03-03 03:26:00,
2013-03-02 22:41:00,31.7,24.0,29.74,NW,325,3.0,8.0,74,0.00,,,0.00,weatherlink.com 1.10,2013-03-03 03:41:00,
2013-03-02 22:56:00,31.7,24.0,29.74,NW,325,3.0,6.0,73,0.00,,,0.00,weatherlink.com 1.10,2013-03-03 03:56:00,
2013-03-02 23:11:00,31.4,24.0,29.74,North,9,3.0,7.0,73,0.00,,,0.00,weatherlink.com 1.10,2013-03-03 04:11:00,
2013-03-02 23:26:00,31.4,24.0,29.73,WNW,291,1.0,6.0,74,0.00,,,0.00,weatherlink.com 1.10,2013-03-03 04:26:00,
2013-03-02 23:41:00,31.3,24.0,29.73,NNW,342,4.0,7.0,73,0.00,,,0.00,weatherlink.com 1.10,2013-03-03 04:41:00,
2013-03-02 23:56:00,31.2,23.0,29.73,SW,234,3.0,8.0,72,0.00,,,0.00,weatherlink.com 1.10,2013-03-03 04:56:00,